Location: F M Corners
(41.2198°N, 80.4709°W)
Time: 18:43:19
(UTC+00:00)

Cosmos 1689 Rocket - Pass Details

Date: 29 October 2020
Orbit: 360 x 375 km, 97.5° (Epoch: 23 November)

Event Time Altitude Azimuth Distance (km) Brightness Sun altitude
Rises 22:55:59 0° 25° (NNE) 2,204 5.5 -7.3°
Reaches altitude 10° 22:58:09 10° 40° (NE) 1,351 4.4 -7.7°
Maximum altitude 23:00:33 24° 97° (E) 808 3.1 -8.1°
Drops below altitude 10° 23:02:56 10° 154° (SSE) 1,340 4.7 -8.6°
Sets 23:05:05 0° 169° (S) 2,182 5.9 -9.0°
